Buffalo, NY

10:05 AM EDT on June 20, 2018 (GMT -0400)
Buffalo Niagara International

Weather History for KBUF - December, 2013

Change the Weather History Date:

Sunday, December 1, 2013

  Actual Average Record
Temperature  
Mean Temperature 36 °F 35 °F  
Max Temperature 40 °F 41 °F 64 °F (1982)
Min Temperature 32 °F 29 °F 6 °F (1936)
Degree Days  
Heating Degree Days 29 30  
Month to date heating degree days 29 30  
Since 1 July heating degree days 1347 1363  
Cooling Degree Days 0 0  
Month to date cooling degree days 0 0  
Year to date cooling degree days 611 544  
Moisture  
Dew Point 27 °F    
Average Humidity 73    
Maximum Humidity 82    
Minimum Humidity 64    
Precipitation  
Precipitation T in 0.12 in 1.24 in (2010)
Month to date precipitation T 0.12  
Year to date precipitation 41.09 36.71  
Snow  
Snow 0.00 in 0.60 in 9.90 in (1979)
Month to date snowfall 0.0 0.6  
Since 1 July snowfall 10.0 9.4  
Snow Depth 2.00 in    
Sea Level Pressure  
Sea Level Pressure 30.05 in    
Wind  
Wind Speed 7 mph (South)    
Max Wind Speed 15 mph    
Max Gust Speed 20 mph    
Visibility 10 miles    
Events Rain    
T = Trace of Precipitation, MM = Missing Value Source: NWS Daily Summary

Daily Weather History Graph

Daily Weather History Graph

Search for Another Location

Airport or City:

Astronomy

Dec. 01, 2013 Rise Set
Actual Time 7:26 AM EST 4:41 PM EST
Civil Twilight 6:54 AM EST 5:13 PM EST
Nautical Twilight 6:19 AM EST 5:48 PM EST
Astronomical Twilight 5:45 AM EST 6:22 PM EST
Moon 5:40 AM EST (12/1) 3:51 PM EST (12/1)
Length of Visible Light 10h 18m
Length of Day
9h 14m
Waning Crescent, 2% of the Moon is Illuminated
Dec 1
Waning Crescent
Dec 2
New
Dec 9
First Quarter
Dec 17
Full
Dec 25
Last Quarter

Hourly Weather History & Observations

Time (EST) Temp. Windchill Dew Point Humidity Pressure Visibility Wind Dir Wind Speed Gust Speed Precip Events Conditions
12:54 AM 34.0 °F 25.5 °F 23.0 °F 64% 30.18 in 10.0 mi SSW 11.5 mph - N/A   Mostly Cloudy
1:54 AM 33.1 °F 26.1 °F 24.1 °F 70% 30.16 in 10.0 mi South 8.1 mph - N/A   Mostly Cloudy
2:54 AM 32.0 °F 25.6 °F 24.1 °F 73% 30.15 in 10.0 mi South 6.9 mph - N/A   Mostly Cloudy
3:54 AM 33.1 °F 26.1 °F 25.0 °F 72% 30.12 in 10.0 mi South 8.1 mph - N/A   Mostly Cloudy
4:54 AM 34.0 °F 28.0 °F 25.0 °F 70% 30.11 in 10.0 mi SSE 6.9 mph - N/A   Overcast
5:54 AM 34.0 °F 27.2 °F 25.0 °F 70% 30.09 in 10.0 mi SSE 8.1 mph - N/A   Overcast
6:54 AM 32.0 °F 24.8 °F 25.0 °F 75% 30.10 in 10.0 mi South 8.1 mph - N/A   Overcast
7:54 AM 32.0 °F 26.4 °F 25.0 °F 75% 30.09 in 10.0 mi SSE 5.8 mph - N/A   Mostly Cloudy
8:54 AM 34.0 °F 28.8 °F 25.0 °F 70% 30.09 in 10.0 mi SE 5.8 mph - N/A   Mostly Cloudy
9:54 AM 36.0 °F 30.3 °F 27.0 °F 70% 30.09 in 10.0 mi South 6.9 mph - N/A   Mostly Cloudy
10:54 AM 37.9 °F 32.1 °F 27.0 °F 65% 30.06 in 10.0 mi South 8.1 mph - N/A   Overcast
11:54 AM 39.0 °F 34.8 °F 28.0 °F 65% 30.04 in 10.0 mi South 5.8 mph - N/A   Overcast
12:54 PM 39.0 °F 34.8 °F 28.0 °F 65% 30.03 in 10.0 mi SSW 5.8 mph - N/A   Overcast
1:54 PM 39.0 °F 32.3 °F 30.0 °F 70% 30.03 in 10.0 mi SW 10.4 mph - 0.00 in Rain Light Rain
2:54 PM 37.9 °F 34.4 °F 30.0 °F 73% 30.01 in 10.0 mi SSW 4.6 mph - 0.00 in   Overcast
3:54 PM 37.9 °F 33.5 °F 28.9 °F 70% 30.00 in 10.0 mi South 5.8 mph - N/A   Overcast
4:54 PM 37.9 °F 32.7 °F 28.9 °F 70% 30.00 in 10.0 mi SSW 6.9 mph - N/A   Overcast
5:54 PM 37.0 °F 32.4 °F 28.9 °F 73% 30.00 in 10.0 mi South 5.8 mph - N/A   Overcast
6:54 PM 37.0 °F 32.4 °F 28.9 °F 73% 30.00 in 10.0 mi South 5.8 mph - N/A   Overcast
7:54 PM 36.0 °F 29.6 °F 30.0 °F 79% 29.99 in 10.0 mi South 8.1 mph - N/A   Overcast
8:54 PM 37.0 °F 33.3 °F 30.0 °F 76% 29.99 in 10.0 mi South 4.6 mph - N/A   Overcast
9:54 PM 37.0 °F 32.4 °F 30.0 °F 76% 29.98 in 10.0 mi South 5.8 mph - N/A   Overcast
10:54 PM 37.0 °F 32.4 °F 28.9 °F 73% 29.96 in 10.0 mi South 5.8 mph - N/A   Overcast
11:54 PM 37.0 °F 31.6 °F 28.9 °F 73% 29.96 in 10.0 mi South 6.9 mph - N/A   Overcast